Regional Weather Roundup
Issued by NWS

Home | Current Version | Previous Version | Graphics & Text | Print | Product List | Glossary Off
Versions: 1 2 3 4 5 6 7 8 9 10 11 12 13 14 15 16 17 18 19 20 21 22 23 24 25 26 27 28 29 30 31 32 33 34 35 36 37 38 39 40 41 42 43 44 45 46 47 48 49 50

000
ASUS43 KMKX 291400
RWRWI

WISCONSIN REGIONAL WEATHER ROUNDUP
NATIONAL WEATHER SERVICE MILWAUKEE/SULLIVAN WI
900 AM CDT FRI MAY 29 2015

NOTE: "FAIR" INDICATES FEW OR NO CLOUDS BELOW 12,000 FEET WITH NO
SIGNIFICANT WEATHER AND/OR OBSTRUCTIONS TO VISIBILITY.

WIZ001-002-006>008-014>016-023>028-291500-
NORTHWEST WISCONSIN

CITY           SKY/WX    TMP DP  RH WIND       PRES   REMARKS
SUPERIOR ARPT  CLOUDY    48  44  85 CALM      29.88S
ASHLAND        LGT RAIN  63  61  93 SW6       29.87S FOG
HAYWARD        LGT RAIN  62  60  93 S7        29.89S
SIREN          CLOUDY    65  62  88 SW8       29.88S
CUMBERLAND     CLOUDY    61  59  94 SW6       29.90R
RICE LAKE      LGT RAIN  62  60  91 S5        29.91S
CHETEK         LGT RAIN  63  62  96 S6        29.90S
LADYSMITH      CLOUDY    64  60  85 S9        29.92S
EAU CLAIRE     NOT AVBL
MENOMONIE      CLOUDY    66  64  94 S8        29.90S
NEW RICHMOND   PTSUNNY   66  65  94 S9        29.88S
OSCEOLA        CLOUDY    66  66 100 S7        29.91R
$$

WIZ003>005-009-010-017-018-291500-
NORTH CENTRAL WISCONSIN

CITY           SKY/WX    TMP DP  RH WIND       PRES   REMARKS
MANITOWISH WTR CLOUDY    63  59  86 S9        29.91S
ARBOR VITAE    PTSUNNY   64  59  82 S9        29.92F
WOODRUFF       PTSUNNY   64  59  82 S9        29.92F
RHINELANDER    CLOUDY    66  58  75 SW10G17   29.95S
EAGLE RIVER    CLOUDY    64  55  75 S6        29.93F
LAND O LAKES   CLOUDY    65  56  74 S6        29.94S
PHILLIPS       CLOUDY    64  59  83 S13       29.91F
TOMAHAWK       CLOUDY    65  59  82 S5        29.94S
MEDFORD        CLOUDY    65  61  87 S13G18    29.94S
MERRILL        PTSUNNY   67  61  80 SW10G17   29.95S
$$

WIZ029-030-035-036-043>047-291500-
CENTRAL WISCONSIN

CITY           SKY/WX    TMP DP  RH WIND       PRES   REMARKS
WAUSAU         PTSUNNY   69  61  75 S10       29.94F
MOSINEE        MOSUNNY   66  63  88 S12G17    29.97S
MARSHFIELD     CLOUDY    67  61  81 S10       29.95R
STEVENS POINT  PTSUNNY   65  60  84 SW9       29.97R
WAUPACA        CLOUDY    64  63  94 S6        29.98R
WAUTOMA        NOT AVBL
WISC RAPIDS    MOSUNNY   68  62  81 S8        29.98R
CAMP DOUGLAS   NOT AVBL
$$

WIZ011>013-019>022-031-037>040-048>050-291500-
NORTHEAST WISCONSIN

CITY           SKY/WX    TMP DP  RH WIND       PRES   REMARKS
ANTIGO         CLOUDY    63  59  87 SW8       29.96F
SHAWANO        CLOUDY    66  60  80 CALM      29.96F
OCONTO         CLOUDY    64  63  94 S3        29.96F
STURGEON BAY   CLOUDY    59  55  88 SE5       30.01F
GREEN BAY      LGT RAIN  67  61  81 S7        29.98S
MANITOWOC      NOT AVBL
APPLETON       DRIZZLE   64  63  94 SE9       29.99S
CLINTONVILLE   LGT RAIN  63  59  88 S9        29.96F
OSHKOSH        LGT RAIN  65  60  84 S12       29.98F
$$

WIZ032>034-041-042-053>061-291500-
SOUTHWEST WISCONSIN

CITY           SKY/WX    TMP DP  RH WIND       PRES   REMARKS
LA CROSSE      PTSUNNY   72  64  76 S8        29.94R
SPARTA         PTSUNNY   67  60  77 S7        29.96R
VIROQUA        PTSUNNY   66  64  94 S9        29.98R
BOSCOBEL       CLOUDY    69  63  81 SW5       29.98R
PRAIRIE DU CHI CLOUDY    67  63  86 E3        29.97R
PLATTEVILLE    CLOUDY    66  63  87 SE8       29.99R
$$

WIZ056-057-062-063-064-067-068-291500-
SOUTH CENTRAL WISCONSIN

CITY           SKY/WX    TMP DP  RH WIND       PRES   REMARKS
REEDSBURG      CLOUDY    66  64  91 S5        29.97S
BARABOO/DELLS  PTSUNNY   66  63  88 S13       29.97S
LONE ROCK      NOT AVBL
MINERAL POINT  CLOUDY    68  63  83 SE12      30.00R
MADISON        CLOUDY    70  62  76 SE7       29.99F
MIDDLETON      CLOUDY    66  65  95 SE5       30.00S
WATERTOWN      CLOUDY   N/A N/A N/A CALM      30.01S
MONROE         CLOUDY    66  61  82 CALM      30.00F
JANESVILLE     MOSUNNY   75  63  64 S8        30.00F
$$

WIZ051-052-058>065-066-070>072-291500-
SOUTHEAST WISCONSIN

CITY           SKY/WX    TMP DP  RH WIND       PRES   REMARKS
MILWAUKEE      CLOUDY    72  61  68 SW13      30.02S
WAUKESHA       MOSUNNY   70  61  73 SW8       30.04R
MILWAUKEE/TIMM PTSUNNY   72  59  64 SW6       30.03S
RACINE         CLOUDY    67  59  75 S7        30.05R
BURLINGTON     PTSUNNY   69  61  74 SW7       30.03R
KENOSHA        PTSUNNY   75  65  70 S10       30.04R
FOND DU LAC    CLOUDY    65  62  90 SE8       30.00F
SHEBOYGAN      TSTM      65  59  81 S10       30.02R
WEST BEND      CLOUDY    64  59  82 CALM      30.03R
JUNEAU         CLOUDY    66  60  81 SE6       30.02F
$$

LSZ147-162-291500-
LAKE SUPERIOR

STATION/POSITION TIME  TEMP    WIND        PRES    WAVE
                       AIR SEA DIR/SP/G            HT/PER
                 (UTC) (F)     (DEG/KT/KT) (MB)    (FT/S)
W MID LAKE BUOY  1250   39 37   60/  2/  4   N/A     1
DEVILS ISLAND    1300   43      30/  3/  4   N/A
PORT WING        1340   44     310/  1/  2   N/A
SAXON HARBOR     1300   62      CALM  /  2   N/A
$$

LMZ867-665-643>646-291500-
LAKE MICHIGAN

STATION/POSITION TIME  TEMP    WIND        PRES    WAVE
                       AIR SEA DIR/SP/G            HT/PER
                 (UTC) (F)     (DEG/KT/KT) (MB)    (FT/S)
CHAMBERS ISLAND  1300   62     160/  5/ 10   N/A
N MID LAKE BUOY  1250   42 37  200/  4/  4   N/A     1
NORTHPORT PIER   1300   61     170/ 10/ 15   N/A
SISTER BAY       1318   60     190/ 16/ 19   N/A
ALGOMA LAKESHORE 1323          190/  3/  4   N/A
KEWAUNEE LAKESHO 1300   50     170/  8/ 10   N/A
SHEBOYGAN LAKESH 1300   51     170/  9/ 10   N/A
PORT WASHINGTON  1300   53      CALM  /  2   N/A
ATWATER BUOY     1300   53     170/  6/  8   N/A
MILWAUKEE LAKESH 1300   54     150/  2/  3   N/A
S MID LAKE BUOY  1250   47 38  150/ 12/ 12   N/A     1
KENOSHA   LAKESH 1300   56     160/  9/ 13   N/A
$$

TC  - TEMPERATURE IN CELSIUS
VSB - VISIBILITY IN STATUTE MILES
WCI - WIND CHILL INDEX
HX  - HEAT INDEX



USA.gov is the U.S. government's official web portal to all federal, state and local government web resources and services.